FALCON HEAVY R/B, 54221

Orbit data source: Space-Track

FALCON HEAVY R/B, 54221 is space debris in GEO originally from a launch on Tue, 01 Nov 2022 UTC launched from the Air Force Eastern Test Range (AFETR). Debris objects in space refer to the collection of defunct objects orbiting the Earth. Examples of debris include non-operational satellites, rocket bodies, and fragments generated from explosions, collisions, or faulty payload assembly.

Loading next visibility...
Identifier
54221, 2022-144C
Orbit
GEO
Last TLE update
22 hours ago
Origin
Manufacturer
SpaceX
Mission
Spacecraft
Bus & Motor
F9ST2, Unknown motor
Mass
~4,000 kg wet, ~4,000 kg dry
Launch date (UTC)
2022-11-01 (3 years ago)
Launch vehicle
Unknown
Launch site
Air Force Eastern Test Range (AFETR)
Object type
Payload
Rocket body
Debris
Shape & HBR
Cyl, Unknown HBR
Radar Cross Section
49.816 m²

Expand to show TLE details & history

TLE from 22 hours ago
0 FALCON HEAVY R/B
1 54221U 22144C   25128.70308164 -.00000106  00000-0  00000-0 0  9992
2 54221   4.9840  65.9316 0054371 207.0999 152.4909  0.98107002  7595
Epoch: 2025-05-08T16:52Z
Definitive object data (Epoch: 2025-05-08T16:52:26.253Z)
Latitude
Longitude
-54.0735°
Altitude
36,611.018 km
Speed
3.038 km/s
True Right ascension
04h 23m 13s
True Declination
0° 00' 00"
Sunlit
Object was in daylight at TLE epoch
Visualization TLE readout
Latitude
-3.3469°
Longitude
-96.33863°
Altitude
36,485.704 km
Speed
3.047 km/s
Apparent Right ascension
01h 54m 07s
Apparent Declination
-9° 27' 29"
Sunlit
Object is in daylight
Visualization observer readout
Local Sidereal Time
22:36:22
Azimuth
125.658° SE
Elevation
22.74°
Doppler factor
1
Orbital elements
Apogee altitude
36,638.258 km
Perigee altitude
36,173.018 km
Semi-major axis
42,783.775 km
Eccentricity
0.0054371
Inclination
4.984°
RAAN
65.9316°
Arg. of periapsis
207.0999°
True anomaly
152.77695°
Mean anomaly
152.4909°
Eccentric anomaly
152.6341°
Mean motion
0.24526 °/min
BSTAR
Unknown
Orbital period
1467.84 mins
Loading historical data...
54221 neighbors
Loading maneuver chart data...
Loading SW <> Apogee altitude chart data...
Loading historical data...
Loading historical data...
Loading historical data...
Loading historical data...
Loading historical data...
Loading historical data...
Loading historical data...

FALCON HEAVY R/B Visibility forecast

Observer location: undefined°, undefined°

Span
Click to sort rows by Start time (UTC) header in descending order
Start Az.
Max El. time (UTC)
Max El. Az.
Max El.
End time (UTC)
End Az.
1440 mins2025-05-09 14:26:13.530Z125.671° SE2025-05-10 00:22:13.530Z123.577° SE28.306°2025-05-10 14:26:13.530Z133.4° SE
|